User: anonymous
Location: Unspecified
(0.0000°N, 0.0000°E)
Time: 01:44:21
(UTC+02:00)
Language:

CZ-4B R/B - Orbit

View from above orbital plane
View from above orbital plane
View from above satellite
View from above satellite

Ground track
Ground track

The orbit data is extracted from the following two-line orbital elements,

1 33410U 08053C   14245.46340815  .00003052  00000-0  24690-3 0  9066
2 33410 097.5926 220.2701 0129841 008.3195 352.0135 14.94089082318383
Epoch (UTC): 02 September 2014 11:07:18
Eccentricity: 0.0129841
inclination: 97.5926°
perigee height: 495 km
apogee height: 675 km
right ascension of ascending node: 220.2701°
argument of perigee: 8.3195°
revolutions per day: 14.94089082
mean anomaly at epoch: 352.0135°
orbit number at epoch: 31838

The dashed part of the orbit path shows where the satellite is in the earth's shadow,  

DLR